カタログに戻る

QIANFAN-124

運用中通信PO
NORAD 68651·PAYLOAD·🇨🇳 China

打ち上げ Apr 7, 2026 から Wenchang Space Launch Site

Loading…

次のパス (今後24時間)

TLE

最新Source: Space-Track

元期: Sep 14, 2026, 21:04 UTC

1 68651U 26075R   26257.87779784  .00000062  00000-0  77189-4 0  9999
2 68651  88.9872 311.8379 0002281  87.8442 272.2970 13.51026521 21927

AllMySatでQIANFAN-124をリアルタイム追跡

Download on the App Store